Weather History for KSDB - March, 2013

Change the Weather History Date:

Wednesday, March 6, 2013

  Actual Average Record
Temperature  
Mean Temperature 41 °F 46 °F  
Max Temperature 46 °F 53 °F 73 °F (1972)
Min Temperature 35 °F 39 °F 19 °F (1956)
Degree Days  
Heating Degree Days 24 19  
Month to date heating degree days 69 118  
Since 1 July heating degree days 2433 2877  
Cooling Degree Days 0 0  
Month to date cooling degree days 0 0  
Year to date cooling degree days 0 0  
Moisture  
Dew Point 35 °F    
Average Humidity 81    
Maximum Humidity 92    
Minimum Humidity 70    
Precipitation  
Precipitation 0.03 in 0.08 in 1.58 in (1975)
Month to date precipitation 0.03 0.47  
Year to date precipitation 1.86 6.12  
Since 1 July precipitation 3.23  
Sea Level Pressure  
Sea Level Pressure 30.02 in    
Wind  
Wind Speed 10 mph (SSW)    
Max Wind Speed 31 mph    
Max Gust Speed 41 mph    
Visibility 2 miles    
Events Fog , Rain    
T = Trace of Precipitation, MM = Missing Value Source: NWS Daily Summary

Daily Weather History Graph

Daily Weather History Graph

Search for Another Location

Airport or City:

Trip Planner

Search our weather history database for the weather conditions in past years. The results will help you decide how hot, cold, wet, or windy it might be!

Date:

Astronomy

Mar. 06, 2013 Rise Set
Actual Time 6:17 AM PST 5:55 PM PST
Civil Twilight 5:51 AM PST 6:20 PM PST
Nautical Twilight 5:22 AM PST 6:49 PM PST
Astronomical Twilight 4:53 AM PST 7:19 PM PST
Moon 2:20 AM PST 12:52 PM PST
Length of Visible Light 12h 28m
Length of Day
11h 38m
Waning Crescent, 29% of the Moon is Illuminated
Mar 6
Waning Crescent
Mar 11
New
Mar 19
First Quarter
Mar 27
Full
Apr 2
Last Quarter

Hourly Weather History & Observations

Time (PST) Temp. Windchill Dew Point Humidity Pressure Visibility Wind Dir Wind Speed Gust Speed Precip Events Conditions
12:05 AM 39.2 °F 28.3 °F 35.6 °F 87% 30.00 in 2.0 mi South 25.3 mph 38.0 mph N/A   Overcast
12:07 AM 39.2 °F 28.3 °F 35.6 °F 87% 30.00 in 1.2 mi SSW 25.3 mph 38.0 mph N/A   Overcast
12:16 AM 39.2 °F 28.3 °F 35.6 °F 87% 30.01 in 0.5 mi South 25.3 mph 41.4 mph N/A Fog Fog
12:29 AM 39.2 °F 29.6 °F 35.6 °F 87% 30.01 in 0.2 mi South 19.6 mph 35.7 mph N/A Fog Fog
12:48 AM 39.0 °F 28.8 °F 35.1 °F 86% 29.93 in 0.5 mi South 21.9 mph 32.2 mph N/A Fog Fog
12:52 AM 39.2 °F 28.5 °F 35.6 °F 87% 30.01 in 0.2 mi South 24.2 mph 35.7 mph N/A Fog Fog
1:48 AM 37.9 °F 27.6 °F 34.0 °F 86% 29.95 in 0.2 mi SSW 20.7 mph 33.4 mph N/A Fog Fog
2:28 AM 37.4 °F 28.2 °F 33.8 °F 87% 30.03 in 1.0 mi SSW 16.1 mph 28.8 mph N/A   Mist
2:30 AM 37.4 °F 28.2 °F 33.8 °F 87% 30.03 in 2.5 mi SSW 16.1 mph 28.8 mph N/A   Overcast
2:34 AM 37.4 °F 28.5 °F 33.8 °F 87% 30.03 in 3.0 mi South 15.0 mph 28.8 mph N/A   Overcast
2:38 AM 37.4 °F 28.9 °F 33.8 °F 87% 30.03 in 1.5 mi SSW 13.8 mph 24.2 mph N/A   Overcast
2:40 AM 37.4 °F 27.2 °F 33.8 °F 87% 30.03 in 0.8 mi South 19.6 mph 24.2 mph N/A   Mist
2:48 AM 37.0 °F 27.7 °F 34.0 °F 89% 29.96 in 0.2 mi SSW 16.1 mph 26.5 mph N/A Fog Fog
3:09 AM 37.4 °F 28.2 °F 33.8 °F 87% 30.01 in 0.5 mi South 16.1 mph 26.5 mph N/A Fog Fog
3:14 AM 37.4 °F 27.2 °F 33.8 °F 87% 30.01 in 1.0 mi South 19.6 mph 25.3 mph N/A   Mist
3:22 AM 37.4 °F 28.2 °F 33.8 °F 87% 30.02 in 2.0 mi SW 16.1 mph 25.3 mph N/A   Overcast
3:27 AM 37.4 °F 28.2 °F 33.8 °F 87% 30.02 in 6.0 mi SSW 16.1 mph 24.2 mph N/A   Overcast
3:34 AM 37.4 °F 27.2 °F 33.8 °F 87% 30.02 in 1.8 mi South 19.6 mph 25.3 mph N/A   Overcast
3:39 AM 37.4 °F 28.9 °F 33.8 °F 87% 30.01 in 0.8 mi SSW 13.8 mph 25.3 mph N/A   Mist
3:46 AM 37.4 °F 28.5 °F 33.8 °F 87% 30.01 in 1.0 mi SW 15.0 mph 24.2 mph N/A   Overcast
3:48 AM 36.0 °F 26.7 °F 33.1 °F 89% 29.96 in 1.8 mi SSW 15.0 mph 24.2 mph N/A   Overcast
3:50 AM 35.6 °F 26.6 °F 32.0 °F 87% 30.01 in 3.0 mi SSW 13.8 mph 24.2 mph N/A   Overcast
4:31 AM 35.6 °F 26.6 °F 30.2 °F 81% 30.03 in 10.0 mi SSW 13.8 mph 26.5 mph N/A   Scattered Clouds
4:48 AM 36.0 °F 26.0 °F 30.9 °F 82% 29.98 in 10.0 mi SSW 17.3 mph 23.0 mph N/A   Partly Cloudy
5:48 AM 36.0 °F 27.1 °F 30.9 °F 82% 30.00 in 10.0 mi SSW 13.8 mph 19.6 mph N/A   Clear
6:17 AM 35.6 °F 25.5 °F 30.2 °F 81% 30.04 in 10.0 mi South 17.3 mph 24.2 mph N/A   Partly Cloudy
6:24 AM 35.6 °F 26.2 °F 32.0 °F 87% 30.04 in 1.0 mi SSW 15.0 mph 23.0 mph N/A   Mist
6:28 AM 35.6 °F 26.6 °F 32.0 °F 87% 30.04 in 0.2 mi SSW 13.8 mph 21.9 mph N/A Fog Fog
6:48 AM 36.0 °F 27.1 °F 32.0 °F 86% 30.01 in 0.2 mi SSW 13.8 mph 21.9 mph N/A Fog Fog
6:54 AM 35.6 °F 26.2 °F 32.0 °F 87% 30.04 in 0.2 mi South 15.0 mph 24.2 mph N/A Fog Fog
7:01 AM 37.4 °F 28.9 °F 33.8 °F 87% 30.05 in 0.2 mi SSW 13.8 mph 24.2 mph N/A Fog Fog
7:12 AM 37.4 °F 28.9 °F 33.8 °F 87% 30.05 in 0.2 mi SSW 13.8 mph 21.9 mph N/A Fog Fog
7:25 AM 37.4 °F 27.8 °F 33.8 °F 87% 30.06 in 0.2 mi South 17.3 mph 21.9 mph N/A Fog Fog
7:31 AM 37.4 °F 28.9 °F 33.8 °F 87% 30.06 in 0.2 mi SSW 13.8 mph 21.9 mph N/A Fog Fog
7:37 AM 37.4 °F 28.9 °F 33.8 °F 87% 30.06 in 0.2 mi SSW 13.8 mph 21.9 mph N/A Fog Fog
7:48 AM 37.0 °F 28.1 °F 33.1 °F 86% 30.04 in 0.2 mi South 15.0 mph - N/A Fog Fog
7:57 AM 37.4 °F 29.3 °F 33.8 °F 87% 30.07 in 0.2 mi SSW 12.7 mph 21.9 mph N/A Fog Fog
8:02 AM 37.4 °F 28.9 °F 32.0 °F 81% 30.07 in 0.8 mi South 13.8 mph 21.9 mph N/A   Haze
8:06 AM 37.4 °F 28.2 °F 33.8 °F 87% 30.07 in 1.5 mi South 16.1 mph 20.7 mph N/A   Overcast
8:11 AM 37.4 °F 27.2 °F 32.0 °F 81% 30.07 in 2.5 mi South 19.6 mph 25.3 mph N/A   Haze
8:16 AM 37.4 °F 28.2 °F 32.0 °F 81% 30.06 in 4.0 mi South 16.1 mph 25.3 mph N/A   Haze
8:26 AM 37.4 °F 27.5 °F 33.8 °F 87% 30.06 in 1.8 mi South 18.4 mph 24.2 mph N/A   Haze
8:29 AM 37.4 °F 28.2 °F 33.8 °F 87% 30.07 in 0.8 mi SSW 16.1 mph 23.0 mph N/A   Overcast
8:41 AM 37.4 °F 28.5 °F 33.8 °F 87% 30.08 in 0.2 mi South 15.0 mph 26.5 mph N/A   Haze
8:48 AM 37.9 °F 28.5 °F 33.1 °F 83% 30.05 in 0.2 mi South 17.3 mph 24.2 mph N/A   Haze
9:01 AM 39.2 °F 30.8 °F 33.8 °F 81% 30.06 in 0.8 mi South 15.0 mph 23.0 mph N/A   Haze
9:05 AM 39.2 °F 30.8 °F 33.8 °F 81% 30.06 in 1.5 mi South 15.0 mph 23.0 mph N/A   Haze
9:09 AM 39.2 °F 31.6 °F 33.8 °F 81% 30.06 in 3.0 mi SSW 12.7 mph 21.9 mph N/A   Haze
9:37 AM 41.0 °F 33.1 °F 33.8 °F 76% 30.07 in 10.0 mi South 15.0 mph 21.9 mph N/A   Overcast
9:48 AM 41.0 °F 33.5 °F 34.0 °F 76% 30.03 in 10.0 mi South 13.8 mph 21.9 mph N/A   Overcast
10:48 AM 44.1 °F 38.1 °F 36.0 °F 73% 30.03 in 10.0 mi South 11.5 mph 20.7 mph 0.00 in   Overcast
11:00 AM 44.6 °F 37.8 °F 35.6 °F 71% 30.07 in 10.0 mi South 15.0 mph 24.2 mph N/A   Overcast
11:48 AM 44.1 °F 37.1 °F 35.1 °F 71% 30.02 in 10.0 mi SSW 15.0 mph 21.9 mph 0.00 in Rain Light Rain
12:42 PM 42.8 °F 36.6 °F 35.6 °F 76% 30.05 in 10.0 mi South 11.5 mph - 0.00 in Rain Light Rain
12:48 PM 42.1 °F 37.7 °F 37.0 °F 82% 30.02 in 10.0 mi South 6.9 mph - 0.00 in Rain Light Rain
1:09 PM 42.8 °F 36.6 °F 37.4 °F 81% 30.05 in 1.8 mi South 11.5 mph - 0.00 in   Haze
1:13 PM 41.0 °F 35.2 °F 35.6 °F 81% 30.05 in 0.8 mi South 9.2 mph - 0.00 in   Haze
1:21 PM 42.8 °F 38.0 °F 37.4 °F 81% 30.04 in 0.2 mi South 8.1 mph - 0.00 in Rain Light Rain
1:48 PM 41.0 °F - 37.9 °F 89% 30.01 in 0.2 mi Calm Calm - 0.01 in Fog , Rain Light Rain
2:20 PM 42.8 °F 39.3 °F 37.4 °F 81% 30.03 in 0.5 mi SSW 5.8 mph - 0.00 in Fog , Rain Light Rain
2:27 PM 42.8 °F 38.6 °F 37.4 °F 81% 30.03 in 0.2 mi SW 6.9 mph - 0.00 in Rain Light Rain
2:48 PM 42.1 °F 39.2 °F 37.9 °F 85% 30.00 in 0.2 mi SW 4.6 mph - 0.01 in Fog , Rain Light Rain
2:55 PM 42.8 °F 38.6 °F 39.2 °F 87% 30.02 in 0.2 mi SSW 6.9 mph - 0.01 in Fog , Rain Light Rain
3:48 PM 43.0 °F 39.5 °F 39.0 °F 86% 29.98 in 0.2 mi South 5.8 mph - 0.01 in Fog Fog
4:48 PM 42.1 °F 39.2 °F 37.9 °F 85% 29.98 in 0.2 mi South 4.6 mph - N/A Fog Fog
5:48 PM 41.0 °F 38.0 °F 37.9 °F 89% 29.98 in 0.2 mi South 4.6 mph - N/A Fog Fog
6:48 PM 41.0 °F 38.0 °F 37.0 °F 86% 29.97 in 0.5 mi SW 4.6 mph - N/A Fog Fog
6:59 PM 39.2 °F 35.9 °F 37.4 °F 93% 30.00 in 0.2 mi SW 4.6 mph - N/A Fog Fog
7:48 PM 39.9 °F 35.1 °F 37.0 °F 89% 29.97 in 0.2 mi WSW 6.9 mph - N/A Fog Fog
8:48 PM 39.9 °F 34.5 °F 37.0 °F 89% 29.97 in 0.2 mi SSW 8.1 mph - N/A Fog Fog
9:48 PM 39.9 °F 36.7 °F 37.0 °F 89% 29.95 in 0.2 mi SSW 4.6 mph - N/A Fog Fog
10:08 PM 39.2 °F 35.9 °F 35.6 °F 87% 29.98 in 0.5 mi SW 4.6 mph - N/A Fog Fog
10:15 PM 39.2 °F 35.9 °F 35.6 °F 87% 29.98 in 0.2 mi SW 4.6 mph - N/A Fog Fog
10:34 PM 37.4 °F 33.8 °F 33.8 °F 87% 29.98 in 0.5 mi SSW 4.6 mph - N/A Fog Fog
10:38 PM 37.4 °F 32.8 °F 33.8 °F 87% 29.97 in 0.2 mi South 5.8 mph - N/A Fog Fog
10:48 PM 39.0 °F 34.8 °F 35.1 °F 86% 29.94 in 0.2 mi SSW 5.8 mph - N/A Fog Fog
11:48 PM 39.0 °F 34.8 °F 36.0 °F 89% 29.92 in 0.2 mi SSW 5.8 mph - N/A Fog Fog